Jamestown, NY

12:17 PM EST on February 20, 2017 (GMT -0500)
Chautauqua County-Jamestown

Weather History for KJHW - March, 2013

Change the Weather History Date:

Thursday, March 7, 2013

  Actual Average Record
Temperature  
Mean Temperature 30 °F -  
Max Temperature 32 °F 38 °F 65 °F (1961)
Min Temperature 28 °F 15 °F -16 °F (1978)
Degree Days  
Heating Degree Days 35    
Moisture  
Dew Point 28 °F    
Average Humidity 89    
Maximum Humidity 93    
Minimum Humidity 80    
Precipitation  
Precipitation 0.01 in - - ()
Sea Level Pressure  
Sea Level Pressure 30.16 in    
Wind  
Wind Speed 6 mph (NNW)    
Max Wind Speed 13 mph    
Max Gust Speed 17 mph    
Visibility 7 miles    
Events      
Averages and records for this station are not official NWS values.
T = Trace of Precipitation, MM = Missing Value Source: NWS Daily Summary

Daily Weather History Graph

Daily Weather History Graph

Search for Another Location

Airport or City:

Trip Planner

Search our weather history database for the weather conditions in past years. The results will help you decide how hot, cold, wet, or windy it might be!

Date:

Astronomy

Mar. 07, 2013 Rise Set
Actual Time 6:42 AM EST 6:14 PM EST
Civil Twilight 6:14 AM EST 6:42 PM EST
Nautical Twilight 5:41 AM EST 7:14 PM EST
Astronomical Twilight 5:09 AM EST 7:47 PM EST
Moon 3:44 AM EST (3/7) 1:56 PM EST (3/7)
Length of Visible Light 12h 28m
Length of Day
11h 32m
Waning Crescent, 20% of the Moon is Illuminated
Mar 7
Waning Crescent
Mar 11
New
Mar 19
First Quarter
Mar 27
Full
Apr 3
Last Quarter

Hourly Weather History & Observations

Time (EST) Temp. Windchill Dew Point Humidity Pressure Visibility Wind Dir Wind Speed Gust Speed Precip Events Conditions
12:15 AM 32.0 °F 28.7 °F 26.6 °F 80% 30.08 in 10.0 mi NNE 3.5 mph - N/A   Overcast
12:35 AM 32.0 °F 28.7 °F 26.6 °F 80% 30.08 in 10.0 mi North 3.5 mph - N/A   Overcast
12:55 AM 32.0 °F 28.7 °F 26.6 °F 80% 30.08 in 10.0 mi NNW 3.5 mph - N/A   Overcast
1:15 AM 32.0 °F 28.7 °F 26.6 °F 80% 30.09 in 10.0 mi NNW 3.5 mph - N/A   Overcast
1:35 AM 30.2 °F 25.4 °F 26.6 °F 86% 30.09 in 10.0 mi North 4.6 mph - N/A   Overcast
1:55 AM 30.2 °F 24.3 °F 26.6 °F 86% 30.09 in 10.0 mi North 5.8 mph - N/A   Overcast
2:15 AM 30.2 °F 25.4 °F 26.6 °F 86% 30.09 in 10.0 mi North 4.6 mph - N/A   Overcast
2:35 AM 30.2 °F 24.3 °F 26.6 °F 86% 30.09 in 10.0 mi NNW 5.8 mph - N/A   Overcast
2:55 AM 30.2 °F 24.3 °F 26.6 °F 86% 30.09 in 10.0 mi North 5.8 mph - N/A   Overcast
3:15 AM 30.2 °F 24.3 °F 26.6 °F 86% 30.09 in 10.0 mi North 5.8 mph - N/A   Overcast
3:35 AM 30.2 °F 25.4 °F 26.6 °F 86% 30.09 in 10.0 mi NNW 4.6 mph - N/A   Overcast
3:55 AM 30.2 °F 25.4 °F 26.6 °F 86% 30.09 in 10.0 mi NNE 4.6 mph - N/A   Overcast
4:15 AM 30.2 °F 24.3 °F 26.6 °F 86% 30.10 in 10.0 mi North 5.8 mph - N/A   Overcast
4:35 AM 30.2 °F 24.3 °F 26.6 °F 86% 30.09 in 10.0 mi NNW 5.8 mph - N/A   Overcast
4:55 AM 30.2 °F 25.4 °F 26.6 °F 86% 30.10 in 10.0 mi NNW 4.6 mph - N/A   Overcast
5:15 AM 30.2 °F 25.4 °F 26.6 °F 86% 30.10 in 10.0 mi NNW 4.6 mph - N/A   Overcast
5:35 AM 30.2 °F 24.3 °F 26.6 °F 86% 30.10 in 10.0 mi North 5.8 mph - N/A   Overcast
5:55 AM 30.2 °F 24.3 °F 26.6 °F 86% 30.10 in 10.0 mi NNW 5.8 mph - N/A   Overcast
6:15 AM 30.2 °F 25.4 °F 26.6 °F 86% 30.11 in 10.0 mi North 4.6 mph - N/A   Overcast
6:35 AM 30.2 °F 24.3 °F 26.6 °F 86% 30.11 in 9.0 mi North 5.8 mph - N/A   Overcast
7:15 AM 30.2 °F 24.3 °F 28.4 °F 93% 30.12 in 8.0 mi North 5.8 mph - N/A   Overcast
7:35 AM 30.2 °F 22.6 °F 28.4 °F 93% 30.13 in 9.0 mi North 8.1 mph - N/A   Overcast
7:55 AM 30.2 °F 21.3 °F 26.6 °F 86% 30.13 in 8.0 mi NNW 10.4 mph - N/A   Overcast
8:15 AM 30.2 °F 21.9 °F 28.4 °F 93% 30.14 in 3.0 mi North 9.2 mph - N/A   Overcast
8:35 AM 30.2 °F 21.9 °F 28.4 °F 93% 30.15 in 5.0 mi North 9.2 mph - N/A   Overcast
8:55 AM 30.2 °F 23.4 °F 28.4 °F 93% 30.15 in 4.0 mi NNW 6.9 mph - N/A   Overcast
9:15 AM 30.2 °F 23.4 °F 28.4 °F 93% 30.15 in 5.0 mi North 6.9 mph - N/A   Overcast
9:35 AM 30.2 °F 21.9 °F 28.4 °F 93% 30.16 in 10.0 mi North 9.2 mph - N/A   Overcast
9:55 AM 30.2 °F 22.6 °F 28.4 °F 93% 30.16 in 8.0 mi North 8.1 mph - N/A   Overcast
10:15 AM 30.2 °F 23.4 °F 28.4 °F 93% 30.17 in 4.0 mi North 6.9 mph - N/A   Overcast
10:35 AM 30.2 °F 22.6 °F 28.4 °F 93% 30.17 in 10.0 mi North 8.1 mph - N/A   Overcast
10:55 AM 30.2 °F 22.6 °F 28.4 °F 93% 30.17 in 10.0 mi NNW 8.1 mph - N/A   Overcast
11:15 AM 32.0 °F 24.2 °F 28.4 °F 87% 30.18 in 10.0 mi NNW 9.2 mph - N/A   Overcast
11:35 AM 32.0 °F 23.6 °F 28.4 °F 87% 30.18 in 3.0 mi NNW 10.4 mph - N/A   Overcast
11:55 AM 32.0 °F 24.2 °F 28.4 °F 87% 30.18 in 1.2 mi NNW 9.2 mph - N/A   Overcast
12:15 PM 30.2 °F 21.3 °F 28.4 °F 93% 30.18 in 2.5 mi NNW 10.4 mph - N/A   Overcast
12:35 PM 30.2 °F 22.6 °F 28.4 °F 93% 30.18 in 5.0 mi North 8.1 mph - N/A   Overcast
12:55 PM 30.2 °F 20.2 °F 28.4 °F 93% 30.18 in 10.0 mi NNW 12.7 mph 17.3 mph N/A   Overcast
1:15 PM 30.2 °F 20.2 °F 28.4 °F 93% 30.18 in 10.0 mi NNW 12.7 mph 17.3 mph N/A   Overcast
1:35 PM 30.2 °F 21.9 °F 28.4 °F 93% 30.18 in 10.0 mi North 9.2 mph - N/A   Overcast
1:55 PM 30.2 °F 20.2 °F 28.4 °F 93% 30.17 in 10.0 mi NNW 12.7 mph - N/A   Overcast
2:15 PM 32.0 °F 23.6 °F 28.4 °F 87% 30.17 in 7.0 mi North 10.4 mph - N/A   Overcast
2:35 PM 32.0 °F 24.8 °F 28.4 °F 87% 30.17 in 10.0 mi North 8.1 mph - N/A   Overcast
2:55 PM 32.0 °F 23.6 °F 28.4 °F 87% 30.17 in 10.0 mi North 10.4 mph - N/A   Overcast
3:15 PM 32.0 °F 25.6 °F 28.4 °F 87% 30.18 in 10.0 mi NNW 6.9 mph - N/A   Overcast
3:35 PM 32.0 °F 23.0 °F 28.4 °F 87% 30.18 in 10.0 mi NW 11.5 mph - N/A   Overcast
3:55 PM 32.0 °F 23.0 °F 26.6 °F 80% 30.18 in 10.0 mi NW 11.5 mph - N/A   Overcast
4:15 PM 32.0 °F 24.2 °F 28.4 °F 87% 30.18 in 6.0 mi NNW 9.2 mph - N/A   Overcast
4:35 PM 32.0 °F 23.0 °F 28.4 °F 87% 30.19 in 6.0 mi NNW 11.5 mph - N/A   Overcast
4:55 PM 32.0 °F 24.2 °F 28.4 °F 87% 30.19 in 10.0 mi NNW 9.2 mph - N/A   Overcast
5:15 PM 32.0 °F 23.0 °F 28.4 °F 87% 30.20 in 9.0 mi NW 11.5 mph - N/A   Overcast
5:35 PM 32.0 °F 24.8 °F 28.4 °F 87% 30.20 in 10.0 mi WNW 8.1 mph - N/A   Overcast
5:55 PM 30.2 °F 21.9 °F 28.4 °F 93% 30.20 in 3.0 mi NW 9.2 mph - N/A   Overcast
6:15 PM 30.2 °F 23.4 °F 28.4 °F 93% 30.21 in 1.2 mi WNW 6.9 mph - N/A   Overcast
6:35 PM 30.2 °F 24.3 °F 28.4 °F 93% 30.21 in 1.0 mi NW 5.8 mph - N/A   Overcast
6:55 PM 30.2 °F 24.3 °F 28.4 °F 93% 30.21 in 1.5 mi NW 5.8 mph - N/A   Overcast
7:15 PM 30.2 °F 24.3 °F 28.4 °F 93% 30.21 in 5.0 mi NW 5.8 mph - N/A   Overcast
7:35 PM 30.2 °F 24.3 °F 28.4 °F 93% 30.21 in 1.8 mi NNW 5.8 mph - N/A   Overcast
7:55 PM 30.2 °F 25.4 °F 28.4 °F 93% 30.22 in 0.8 mi North 4.6 mph - N/A   Overcast
8:15 PM 30.2 °F 23.4 °F 28.4 °F 93% 30.22 in 2.5 mi NNW 6.9 mph - 0.01 in   Overcast
8:35 PM 30.2 °F 22.6 °F 28.4 °F 93% 30.22 in 3.0 mi NW 8.1 mph - 0.01 in   Overcast
8:55 PM 30.2 °F 24.3 °F 28.4 °F 93% 30.22 in 1.2 mi NNW 5.8 mph - 0.01 in   Overcast
9:15 PM 30.2 °F 25.4 °F 26.6 °F 86% 30.22 in 1.0 mi North 4.6 mph - N/A   Overcast
9:35 PM 30.2 °F 23.4 °F 28.4 °F 93% 30.22 in 0.8 mi North 6.9 mph - N/A   Overcast
9:55 PM 28.4 °F 19.7 °F 26.6 °F 93% 30.23 in 3.0 mi North 9.2 mph - N/A   Overcast
10:15 PM 28.4 °F 21.2 °F 26.6 °F 93% 30.22 in 10.0 mi North 6.9 mph - N/A   Overcast
10:35 PM 28.4 °F 19.7 °F 26.6 °F 93% 30.22 in 10.0 mi North 9.2 mph - N/A   Overcast
10:55 PM 28.4 °F 22.2 °F 26.6 °F 93% 30.23 in 9.0 mi North 5.8 mph - N/A   Overcast
11:15 PM 28.4 °F 20.4 °F 26.6 °F 93% 30.23 in 10.0 mi NW 8.1 mph - N/A   Overcast
11:35 PM 28.4 °F 20.4 °F 26.6 °F 93% 30.23 in 1.8 mi NW 8.1 mph - N/A   Overcast
11:55 PM 28.4 °F 18.5 °F 26.6 °F 93% 30.23 in 2.0 mi NW 11.5 mph - N/A   Overcast